[[{"header":{"parameterUnit":"m.s-1","parameterCategory":2,"la1":30.2991,"la2":30.254,"lo1":-89.0895,"lo2":-89.0444,"dy":0.0017,"dx":0.0017,"nx":28,"ny":28,"refTime":"2025-04-27T09:00:00:Z","depth":"0","parameterNumber":2,"parameterNumberName":"U-component_of_CURRENTS"},"data":[0,0,0,0,0,0,0,0,0,0,0,0,0,0,0,0,0,0,0,0,0,0,0,0,0,0,0,0,0,0,0,0,0,0,0,0,0,0,0,0,0,0,0,0,0,0,0,0,0,0,0,0,0,0,0,0,0,0,0.3285,0.3285,0,0.3265,0.3264,0.3264,0.3235,0.3235,0.3234,0.3234,0.3194,0.3193,0.3193,0,0,0,0,0,0,0,0,0,0,0,0,0,0.33,0.3299,0.3285,0.3285,0.3285,0.3265,0.3264,0.3264,0.3235,0.3235,0.3234,0.3234,0.3194,0.3193,0.3192,0,0,0,0,0,0,0,0,0,0,0,0,0,0.3285,0.3299,0.3285,0.327,0.3269,0.3265,0.3264,0.3263,0.3235,0.3235,0.3234,0.3234,0.3195,0.3194,0.3192,0.3192,0,0,0.3188,0.3188,0,0,0,0,0,0,0,0,0.3286,0.3284,0.3273,0.3272,0.327,0.3254,0.3255,0.3239,0.3235,0.3245,0.3234,0.3234,0.3214,0.3212,0.3205,0.319,0.3188,0.3188,0.3188,0.3187,0.3187,0,0,0,0,0,0,0,0.3287,0.3285,0.3274,0.3273,0.3271,0.3265,0.3262,0.3252,0.323,0.3244,0.3243,0.3245,0.3213,0.3206,0.3204,0.3188,0.3188,0.3187,0.3187,0.3186,0.3204,0.3205,0,0,0,0,0,0,0.3295,0.3286,0.3275,0.3274,0.328,0.3265,0.3262,0.3258,0.323,0.3227,0.3245,0.3244,0.3209,0.3205,0.3202,0.3224,0.3187,0.3186,0.3185,0.3203,0.3204,0.3206,0,0,0,0,0,0,0.3296,0.3294,0.3276,0.3282,0.328,0.3266,0.3261,0.3257,0.3255,0.3232,0.3227,0.3247,0.3208,0.3204,0.3204,0.3221,0.3185,0.3184,0.3201,0.3203,0.3205,0.3252,0,0,0,0,0,0,0.3296,0.3294,0.3296,0.3283,0.328,0.3282,0.3261,0.3257,0.3258,0.3256,0.3232,0.3227,0.3208,0.3206,0.3202,0.3219,0.3183,0.32,0.3202,0.3204,0.3249,0.3256,0.3261,0,0,0,0,0,0.3297,0.3298,0.3296,0.3295,0.3281,0.3283,0.3281,0.3267,0.3259,0.3263,0.3249,0.3228,0.3218,0.3206,0.3201,0.3218,0.3199,0.3202,0.3204,0.3247,0.3254,0.3261,0,0,0,0,0,0,0.3305,0.3295,0.3292,0.329,0.3292,0.3279,0.3281,0.3274,0.3266,0.3263,0.3239,0.3234,0.3245,0.3227,0.3214,0.3233,0.3207,0.321,0.3241,0.3248,0.3254,0.327,0.3182,0,0,0,0,0,0.3309,0.3308,0.3302,0.3304,0.3305,0.3295,0.3295,0.3289,0.3281,0.3276,0.3261,0.3251,0.3253,0.3246,0.3243,0.3246,0.3257,0.3257,0.3263,0.3268,0.328,0.3319,0.333,0.3215,0.3215,0.3215,0,0,0.3315,0.331,0.3309,0.3307,0.3304,0.331,0.3293,0.3297,0.3304,0.3274,0.3276,0.3272,0.3261,0.327,0.3273,0.3255,0.3308,0.3272,0.3276,0.3285,0.3324,0.3335,0.3345,0.3217,0.3216,0.3216,0,0,0.3325,0.332,0.3322,0.3327,0.3329,0.3325,0.3331,0.3323,0.3321,0.3325,0.3315,0.3326,0.3309,0.3315,0.3313,0.3351,0.3343,0.3347,0.3381,0.3419,0.3429,0.3438,0.3471,0.3482,0.3343,0.3343,0.3343,0,0.3335,0.3329,0.3326,0.3333,0.3333,0.3335,0.3338,0.3346,0.3341,0.335,0.3332,0.3347,0.3335,0.3365,0.3377,0.3365,0.3383,0.3352,0.3427,0.3436,0.3444,0.3476,0.3488,0.3346,0.3345,0.3345,0.3345,0,0.3345,0.3344,0.3348,0.3353,0.3358,0.3363,0.3371,0.3383,0.3379,0.3389,0.3416,0.3408,0.342,0.3419,0.3405,0.3461,0.3454,0.3435,0.3409,0.3459,0.3489,0.35,0.335,0.3349,0.3348,0.3347,0,0,0.335,0.3352,0.3352,0.3355,0.3363,0.3369,0.339,0.341,0.3444,0.3444,0.3482,0.3488,0.3498,0.3499,0.3492,0.3519,0.359,0.3502,0.3503,0.3535,0.3677,0.364,0.3649,0.3584,0.3586,0.3588,0.3676,0,0.3355,0.3359,0.3359,0.3372,0.3371,0.3384,0.3409,0.3437,0.3461,0.3507,0.3521,0.3559,0.3526,0.3542,0.3566,0.3593,0.3622,0.3568,0.3624,0.3626,0.3587,0.3662,0.3535,0.36,0.3687,0.3689,0.3691,0,0.3353,0.3355,0.3354,0.3373,0.3377,0.3394,0.3435,0.3464,0.3537,0.3564,0.3608,0.3628,0.3681,0.3641,0.371,0.3678,0.3685,0.3695,0.3698,0.3656,0.3611,0.3563,0.3617,0.3517,0.3708,0.3707,0.3706,0,0.3333,0.335,0.3342,0.3348,0.3377,0.339,0.3416,0.3479,0.3515,0.3616,0.3655,0.3721,0.3758,0.3785,0.3797,0.3766,0.3871,0.3828,0.38,0.3797,0.3697,0.3681,0.3659,0.3879,0.3879,0.3879,0.3879,0,0.3317,0.3316,0.3339,0.3338,0.3356,0.3388,0.3428,0.3481,0.3564,0.3621,0.3686,0.3741,0.3796,0.3848,0.3847,0.3871,0.3913,0.3832,0.3828,0.3709,0.3695,0.3607,0.3542,0.3882,0.3881,0.3881,0.388,0,0.3279,0.3291,0.3293,0.3327,0.3339,0.3356,0.3413,0.3456,0.3549,0.3625,0.366,0.3781,0.3865,0.3903,0.3972,0.3934,0.3848,0.395,0.3808,0.3785,0.3644,0.3586,0.3446,0.3346,0.3942,0.3942,0.3942,0,0.3251,0.3248,0.3275,0.3274,0.3284,0.3315,0.3338,0.3434,0.3485,0.3635,0.3673,0.3797,0.3871,0.3974,0.3958,0.3979,0.3838,0.3848,0.3759,0.3644,0.3576,0.3425,0.3339,0.3648,0.3646,0.3643,0.3642,0,0.3206,0.3219,0.3222,0.322,0.3234,0.3244,0.3293,0.3327,0.3447,0.3519,0.3632,0.3715,0.3852,0.3841,0.3884,0.3869,0.3655,0.3804,0.372,0.3383,0.3181,0.3079,0.3585,0.3623,0.3625,0.3626,0.3627,0.3628,0.3176,0.3162,0.3167,0.315,0.316,0.3147,0.312,0.3199,0.3252,0.3332,0.351,0.3574,0.3688,0.3748,0.3713,0.357,0.3532,0.3442,0.3397,0.3269,0.3111,0.358,0.3586,0.3588,0.3589,0.359,0.3591,0,0.3121,0.3104,0.3092,0.3051,0.3005,0.3048,0.306,0.3017,0.3024,0.3172,0.3262,0.3344,0.3358,0.3403,0.3342,0.3192,0.3035,0.3074,0.2831,0.278,0.3243,0.317,0.3041,0.3041,0.3041,0.3041,0.3041,0.3041,0.3098,0.3046,0.3018,0.2897,0.2865,0.2762,0.2736,0.2714,0.2766,0.2789,0.2831,0.295,0.3105,0.309,0.2953,0.2876,0.2637,0.2492,0.2479,0.2811,0.2841,0.287,0.2788,0.2581,0.258,0.1917,0.1912,0.1908]},{"header":{"parameterUnit":"m.s-1","parameterCategory":2,"la1":30.2991,"la2":30.254,"lo1":-89.0895,"lo2":-89.0444,"dy":0.0017,"dx":0.0017,"nx":28,"ny":28,"refTime":"2025-04-27T09:00:00:Z","depth":"0","parameterNumber":3,"parameterNumberName":"V-component_of_CURRENTS"},"data":[0,0,0,0,0,0,0,0,0,0,0,0,0,0,0,0,0,0,0,0,0,0,0,0,0,0,0,0,0,0,0,0,0,0,0,0,0,0,0,0,0,0,0,0,0,0,0,0,0,0,0,0,0,0,0,0,0,0,0.0558,0.0558,0,0.0504,0.0503,0.0502,0.0462,0.0462,0.0462,0.0461,0.0389,0.0388,0.0386,0,0,0,0,0,0,0,0,0,0,0,0,0,0.0547,0.0547,0.0558,0.0558,0.0557,0.0504,0.0503,0.0502,0.0462,0.0462,0.0462,0.0461,0.039,0.0388,0.0386,0,0,0,0,0,0,0,0,0,0,0,0,0,0.0526,0.0547,0.0558,0.0533,0.053,0.0504,0.0503,0.0502,0.0462,0.0462,0.0461,0.0461,0.0391,0.0388,0.0385,0.0373,0,0,0.0377,0.0376,0,0,0,0,0,0,0,0,0.0527,0.0526,0.0537,0.0534,0.0531,0.0492,0.0473,0.0459,0.0462,0.0485,0.0461,0.0461,0.0424,0.0418,0.0405,0.0369,0.0366,0.0377,0.0375,0.0374,0.0373,0,0,0,0,0,0,0,0.0529,0.0528,0.0534,0.0536,0.0533,0.0497,0.0494,0.0469,0.0454,0.0483,0.0481,0.0479,0.0422,0.0408,0.0403,0.0365,0.0377,0.0375,0.0373,0.0372,0.0321,0.0322,0,0,0,0,0,0,0.0545,0.053,0.0536,0.0533,0.0532,0.0498,0.0494,0.0503,0.0454,0.0448,0.0479,0.0477,0.0413,0.0406,0.0401,0.0403,0.0374,0.0372,0.037,0.0321,0.0321,0.0322,0,0,0,0,0,0,0.0545,0.0547,0.0538,0.0531,0.0528,0.0499,0.0508,0.0502,0.0492,0.0452,0.0444,0.0477,0.0412,0.0404,0.0387,0.0399,0.037,0.0368,0.0321,0.0321,0.0322,0.0394,0,0,0,0,0,0,0.0545,0.0547,0.0557,0.0533,0.0529,0.0535,0.0508,0.0501,0.0493,0.049,0.0448,0.044,0.0411,0.0392,0.0385,0.0395,0.0366,0.032,0.0321,0.0321,0.0391,0.0397,0.0402,0,0,0,0,0,0.0545,0.0565,0.0558,0.0559,0.0545,0.0535,0.053,0.0506,0.0493,0.0495,0.0466,0.0442,0.039,0.039,0.0382,0.0391,0.032,0.0321,0.0321,0.0389,0.0396,0.0402,0,0,0,0,0,0,0.0561,0.0562,0.0554,0.0573,0.056,0.053,0.0529,0.0513,0.0491,0.0487,0.0447,0.0438,0.0425,0.0398,0.0399,0.0377,0.035,0.0349,0.0405,0.0411,0.0416,0.0437,0.0364,0,0,0,0,0,0.0572,0.0589,0.0576,0.0589,0.0586,0.0558,0.0551,0.0537,0.0515,0.0504,0.0476,0.0445,0.0419,0.0409,0.038,0.0372,0.0339,0.0371,0.0376,0.0381,0.0392,0.0353,0.0356,0.0324,0.0324,0.0324,0,0,0.058,0.0583,0.0591,0.0594,0.0579,0.0589,0.0553,0.055,0.0555,0.05,0.0497,0.0461,0.042,0.0409,0.0401,0.039,0.0372,0.0382,0.0386,0.0395,0.0354,0.0357,0.036,0.0324,0.0324,0.0324,0,0,0.0608,0.0609,0.0634,0.0631,0.0624,0.0611,0.0616,0.0593,0.0581,0.0571,0.0533,0.0508,0.0471,0.0446,0.0428,0.0445,0.0398,0.0433,0.048,0.0442,0.0444,0.0446,0.0406,0.0404,0.0438,0.0438,0.0438,0,0.0616,0.0651,0.0636,0.0657,0.0662,0.0629,0.0653,0.0636,0.061,0.0607,0.0582,0.0527,0.049,0.0479,0.0482,0.0458,0.0427,0.0462,0.045,0.0451,0.0452,0.041,0.0407,0.0442,0.0441,0.0441,0.0441,0,0.0664,0.0689,0.0702,0.0724,0.0724,0.0739,0.0721,0.0717,0.0696,0.068,0.0659,0.0601,0.0574,0.0552,0.0522,0.0512,0.0484,0.046,0.0438,0.046,0.0414,0.0409,0.0447,0.0446,0.0445,0.0444,0,0,0.0687,0.0731,0.0735,0.0762,0.0765,0.0774,0.0783,0.0788,0.0807,0.0758,0.077,0.0709,0.0676,0.0653,0.0605,0.0569,0.0539,0.0523,0.052,0.0492,0.0453,0.0447,0.044,0.0512,0.0511,0.0511,0.0419,0,0.073,0.0797,0.08,0.0854,0.0887,0.0865,0.0883,0.0878,0.0864,0.0866,0.0796,0.0786,0.0716,0.0705,0.0657,0.0575,0.0531,0.0567,0.043,0.0426,0.0424,0.0436,0.0473,0.0395,0.0414,0.0413,0.0412,0,0.0776,0.082,0.0889,0.0939,0.095,0.0976,0.1006,0.1017,0.1004,0.0992,0.0959,0.0903,0.0847,0.078,0.0647,0.0673,0.0573,0.0496,0.049,0.0459,0.0411,0.0376,0.0385,0.0272,0.0404,0.0405,0.0405,0,0.0815,0.0879,0.0943,0.0959,0.1007,0.1031,0.1055,0.1061,0.1093,0.1077,0.109,0.1004,0.0974,0.0836,0.0676,0.066,0.0523,0.048,0.0374,0.0371,0.0364,0.0362,0.0257,0.0378,0.0379,0.0379,0.0379,0,0.0865,0.0914,0.0974,0.101,0.1087,0.1094,0.117,0.1175,0.1206,0.1258,0.1165,0.1182,0.0986,0.088,0.0714,0.0541,0.0549,0.0388,0.0352,0.0389,0.0391,0.0261,0.0168,0.0375,0.0376,0.0377,0.0378,0,0.0898,0.0935,0.1016,0.1087,0.1111,0.1169,0.1257,0.1318,0.1327,0.1388,0.1385,0.132,0.1192,0.0981,0.0769,0.061,0.0359,0.036,0.0419,0.0391,0.019,0.0101,-0.0056,-0.0108,0.023,0.0229,0.0229,0,0.0926,0.0973,0.1074,0.113,0.1169,0.1257,0.1325,0.1374,0.1451,0.148,0.1523,0.1423,0.1388,0.1078,0.0783,0.0494,0.0347,0.0322,0.0296,0.0193,0.0065,0.0017,-0.0018,0.0305,0.0305,0.0305,0.0305,0,0.0978,0.1013,0.1081,0.1199,0.1287,0.1388,0.1495,0.1576,0.1634,0.1695,0.176,0.1734,0.1451,0.1204,0.0806,0.0594,0.0255,0.0315,0.0192,0.0106,0.0063,-0.0007,0.0345,0.0306,0.0306,0.0306,0.0306,0.0306,0.1013,0.1069,0.116,0.1269,0.1374,0.1507,0.1607,0.1735,0.1867,0.1979,0.1951,0.1963,0.1592,0.1078,0.0772,0.0274,0.0251,0.0134,0.0029,-0.0011,-0.0045,0.0314,0.0246,0.0246,0.0246,0.0245,0.0245,0,0.1054,0.1119,0.1224,0.1356,0.1475,0.1527,0.1707,0.1824,0.1997,0.2122,0.2195,0.2045,0.1589,0.1092,0.0408,0.0066,-0.0053,-0.0123,-0.0182,-0.0209,0.0102,0.0125,0.005,0.005,0.005,0.005,0.005,0.005,0.1078,0.1172,0.1223,0.1409,0.1509,0.1678,0.1787,0.1967,0.2108,0.2282,0.2326,0.2335,0.1949,0.0754,-0.0018,-0.0201,-0.0416,-0.0475,-0.0594,-0.0382,-0.0365,-0.0349,-0.0346,-0.0519,-0.052,-0.0814,-0.0818,-0.0821]}],[{"header":{"parameterUnit":"m.s-1","parameterCategory":2,"la1":30.2991,"la2":30.254,"lo1":-89.0895,"lo2":-89.0444,"dy":0.0017,"dx":0.0017,"nx":28,"ny":28,"refTime":"2025-04-27T09:00:00:Z","depth":"2","parameterNumber":2,"parameterNumberName":"U-component_of_CURRENTS"},"data":[0,0,0,0,0,0,0,0,0,0,0,0,0,0,0,0,0,0,0,0,0,0,0,0,0,0,0,0,0,0,0,0,0,0,0,0,0,0,0,0,0,0,0,0,0,0,0,0,0,0,0,0,0,0,0,0,0,0,0.2843,0.2843,0,0.2849,0.2849,0.2849,0.2841,0.2841,0.284,0.284,0.2828,0.2828,0.2828,0,0,0,0,0,0,0,0,0,0,0,0,0,0.2827,0.2827,0.2843,0.2843,0.2844,0.2849,0.2849,0.2849,0.2841,0.2841,0.284,0.284,0.2829,0.2828,0.2828,0,0,0,0,0,0,0,0,0,0,0,0,0,0.2832,0.2827,0.2843,0.2842,0.2842,0.2849,0.2849,0.2849,0.2841,0.2841,0.284,0.284,0.2829,0.2828,0.2828,0.2828,0,0,0.2827,0.2827,0,0,0,0,0,0,0,0,0.2831,0.2832,0.2842,0.2842,0.2842,0.2846,0.284,0.2842,0.2841,0.2839,0.284,0.284,0.2834,0.2834,0.2832,0.2828,0.2827,0.2827,0.2827,0.2826,0.2826,0,0,0,0,0,0,0,0.2831,0.2832,0.2843,0.2842,0.2842,0.2843,0.2843,0.284,0.2835,0.2839,0.2839,0.2843,0.2834,0.2832,0.2832,0.2827,0.2827,0.2827,0.2826,0.2826,0.2867,0.2868,0,0,0,0,0,0,0.2835,0.2831,0.2843,0.2843,0.2839,0.2843,0.2843,0.2843,0.2835,0.2835,0.2843,0.2843,0.2833,0.2832,0.2831,0.2867,0.2826,0.2826,0.2826,0.2866,0.2868,0.2869,0,0,0,0,0,0,0.2835,0.2836,0.2843,0.284,0.2841,0.2844,0.2844,0.2843,0.2852,0.284,0.2838,0.2854,0.2833,0.2832,0.2843,0.2865,0.2826,0.2826,0.2864,0.2866,0.2868,0.2917,0,0,0,0,0,0,0.2834,0.2835,0.2841,0.284,0.2841,0.2857,0.2844,0.2844,0.2856,0.2855,0.2848,0.2846,0.2833,0.2844,0.2843,0.2864,0.2825,0.2863,0.2865,0.2868,0.2913,0.292,0.2926,0,0,0,0,0,0.2833,0.2837,0.2841,0.2842,0.2847,0.2858,0.2859,0.2858,0.2856,0.2865,0.2863,0.2847,0.2859,0.2845,0.2843,0.2865,0.2862,0.2865,0.2867,0.2911,0.2919,0.2925,0,0,0,0,0,0,0.2832,0.2837,0.284,0.2846,0.2858,0.2858,0.2866,0.2868,0.2872,0.2874,0.2859,0.2858,0.2881,0.2867,0.2852,0.2886,0.2859,0.2862,0.2893,0.29,0.2906,0.2919,0.2825,0,0,0,0,0,0.2836,0.2841,0.2849,0.2857,0.2864,0.2869,0.2875,0.2878,0.2881,0.2884,0.288,0.288,0.289,0.289,0.2895,0.2907,0.2914,0.2922,0.2928,0.2934,0.2944,0.2979,0.299,0.2879,0.2879,0.2878,0,0,0.2837,0.2842,0.2845,0.2858,0.2865,0.2881,0.2871,0.2888,0.2903,0.2882,0.29,0.2904,0.2901,0.292,0.2929,0.291,0.297,0.2937,0.2942,0.2949,0.2983,0.2994,0.3004,0.2881,0.288,0.288,0,0,0.2844,0.285,0.2858,0.2871,0.2891,0.2897,0.2907,0.2917,0.2924,0.2942,0.294,0.2959,0.2959,0.2969,0.2971,0.3014,0.3007,0.3015,0.3049,0.3083,0.3092,0.3101,0.3126,0.3136,0.3011,0.3012,0.3012,0,0.285,0.2855,0.2864,0.2879,0.2889,0.2908,0.2921,0.2938,0.2952,0.2965,0.2955,0.299,0.2985,0.3021,0.3037,0.3029,0.3044,0.3018,0.3091,0.3099,0.3107,0.3131,0.3142,0.3014,0.3014,0.3014,0.3013,0,0.286,0.2871,0.288,0.2904,0.2918,0.2935,0.2959,0.2981,0.2992,0.3009,0.3049,0.3052,0.3072,0.3077,0.3067,0.3124,0.3116,0.31,0.3071,0.3121,0.3143,0.3153,0.3018,0.3017,0.3016,0.3016,0,0,0.2853,0.288,0.2884,0.2897,0.293,0.2944,0.2979,0.3013,0.3051,0.3069,0.3113,0.3133,0.3146,0.3152,0.3151,0.3179,0.3244,0.3165,0.3165,0.3188,0.3321,0.3265,0.327,0.3242,0.3244,0.3245,0.3315,0,0.2859,0.2879,0.2894,0.2925,0.2936,0.2967,0.3002,0.3042,0.3077,0.313,0.3152,0.32,0.3172,0.3196,0.3219,0.3249,0.3273,0.3227,0.3271,0.3272,0.3215,0.3281,0.3018,0.3054,0.3325,0.3326,0.3328,0,0.2859,0.2872,0.2889,0.2932,0.2942,0.2971,0.3031,0.3071,0.3151,0.3186,0.3235,0.3261,0.3318,0.3286,0.335,0.3324,0.3328,0.3339,0.3342,0.328,0.3235,0.3048,0.3062,0.3344,0.3343,0.3342,0.3341,0,0.2831,0.287,0.2879,0.2893,0.2947,0.2969,0.301,0.3085,0.3128,0.3237,0.328,0.3347,0.3388,0.3415,0.3427,0.3402,0.3495,0.3457,0.3408,0.3404,0.3184,0.3156,0.3501,0.3501,0.3501,0.3501,0.3501,0,0.2816,0.2829,0.2872,0.2879,0.2913,0.2963,0.3018,0.3081,0.3175,0.3236,0.331,0.3363,0.3425,0.3471,0.3471,0.3478,0.3527,0.3435,0.3427,0.3193,0.3167,0.3416,0.3406,0.3503,0.3503,0.3502,0.3502,0,0.2775,0.2801,0.282,0.2876,0.2895,0.2924,0.3007,0.3055,0.3159,0.3242,0.328,0.3398,0.3472,0.3511,0.3574,0.3528,0.3547,0.3529,0.3252,0.321,0.3421,0.3412,0.3491,0.349,0.3489,0.3488,0.3488,0,0.2749,0.2755,0.2805,0.2814,0.2837,0.2887,0.2921,0.3033,0.3088,0.3245,0.328,0.3398,0.3451,0.3532,0.3495,0.3498,0.3548,0.3242,0.3143,0.344,0.3425,0.3417,0.341,0.2869,0.2863,0.2859,0.2855,0,0.2706,0.2728,0.2743,0.276,0.2788,0.2814,0.2878,0.2911,0.3046,0.3115,0.3215,0.3281,0.3378,0.3275,0.3296,0.3252,0.3225,0.3148,0.3536,0.2919,0.2861,0.2843,0.2855,0.2813,0.2817,0.282,0.2822,0.2824,0.2674,0.2668,0.2688,0.2692,0.2717,0.2715,0.27,0.2778,0.283,0.29,0.3051,0.3055,0.3102,0.3005,0.2909,0.2822,0.304,0.2885,0.2896,0.2913,0.2835,0.2779,0.2701,0.2704,0.2707,0.271,0.2712,0,0.2616,0.2612,0.2615,0.2597,0.2568,0.2623,0.2643,0.2601,0.2599,0.2709,0.2768,0.2564,0.2515,0.2548,0.2358,0.2357,0.2295,0.2253,0.2144,0.2189,0.2229,0.2112,0.1788,0.1785,0.1782,0.1779,0,0,0.2586,0.2549,0.2534,0.2443,0.2433,0.2352,0.2332,0.2299,0.2324,0.2284,0.2267,0.2452,0.2516,0.2133,0.208,0.1901,0.2026,0.1825,0.2577,0.2499,0.2534,0.2616,0.2492,0,0,0,0,0]},{"header":{"parameterUnit":"m.s-1","parameterCategory":2,"la1":30.2991,"la2":30.254,"lo1":-89.0895,"lo2":-89.0444,"dy":0.0017,"dx":0.0017,"nx":28,"ny":28,"refTime":"2025-04-27T09:00:00:Z","depth":"2","parameterNumber":3,"parameterNumberName":"V-component_of_CURRENTS"},"data":[0,0,0,0,0,0,0,0,0,0,0,0,0,0,0,0,0,0,0,0,0,0,0,0,0,0,0,0,0,0,0,0,0,0,0,0,0,0,0,0,0,0,0,0,0,0,0,0,0,0,0,0,0,0,0,0,0,0,0.0428,0.0428,0,0.0383,0.0382,0.0381,0.035,0.035,0.035,0.035,0.0288,0.0286,0.0285,0,0,0,0,0,0,0,0,0,0,0,0,0,0.0416,0.0417,0.0428,0.0428,0.0427,0.0383,0.0382,0.0381,0.035,0.035,0.035,0.035,0.0288,0.0287,0.0285,0,0,0,0,0,0,0,0,0,0,0,0,0,0.0399,0.0417,0.0428,0.0408,0.0406,0.0383,0.0382,0.0381,0.035,0.035,0.035,0.035,0.0289,0.0287,0.0284,0.0271,0,0,0.0277,0.0276,0,0,0,0,0,0,0,0,0.0401,0.04,0.0411,0.0409,0.0407,0.0374,0.0355,0.0344,0.035,0.037,0.035,0.035,0.0316,0.0312,0.0301,0.0268,0.0265,0.0277,0.0275,0.0274,0.0273,0,0,0,0,0,0,0,0.0402,0.0401,0.0408,0.0411,0.0408,0.0377,0.0375,0.0352,0.0342,0.0368,0.0366,0.0364,0.0315,0.0303,0.0299,0.0264,0.0277,0.0275,0.0273,0.0272,0.0221,0.0221,0,0,0,0,0,0,0.0415,0.0403,0.041,0.0407,0.0406,0.0377,0.0375,0.0383,0.0343,0.0337,0.0364,0.0363,0.0307,0.0302,0.0297,0.0296,0.0274,0.0272,0.0271,0.022,0.0221,0.0221,0,0,0,0,0,0,0.0415,0.0417,0.0412,0.0404,0.0402,0.0378,0.0387,0.0382,0.0375,0.034,0.0334,0.0363,0.0307,0.03,0.0284,0.0293,0.0271,0.0269,0.022,0.022,0.0221,0.0283,0,0,0,0,0,0,0.0415,0.0417,0.0426,0.0406,0.0403,0.0407,0.0387,0.0381,0.0375,0.0373,0.0337,0.0331,0.0307,0.0288,0.0282,0.0289,0.0267,0.022,0.022,0.0221,0.0281,0.0286,0.0289,0,0,0,0,0,0.0415,0.0431,0.0427,0.0428,0.0417,0.0408,0.0403,0.0384,0.0375,0.0377,0.0353,0.0333,0.0284,0.0286,0.0279,0.0286,0.022,0.022,0.0221,0.0279,0.0285,0.0289,0,0,0,0,0,0,0.0425,0.0429,0.0424,0.0439,0.0429,0.0404,0.0403,0.039,0.0371,0.037,0.0335,0.0327,0.0315,0.0291,0.0294,0.027,0.0248,0.0247,0.0295,0.03,0.0304,0.0323,0.0265,0,0,0,0,0,0.0434,0.045,0.044,0.0451,0.0449,0.0427,0.042,0.041,0.0391,0.0383,0.0359,0.0331,0.0309,0.0298,0.0273,0.0263,0.0233,0.026,0.0265,0.0268,0.0278,0.024,0.0242,0.0221,0.0221,0.0221,0,0,0.0438,0.0444,0.0451,0.0454,0.0443,0.0452,0.0423,0.042,0.0425,0.0379,0.0377,0.0346,0.0309,0.0297,0.0289,0.0279,0.0258,0.0269,0.0272,0.028,0.0241,0.0243,0.0245,0.0221,0.0221,0.0221,0,0,0.0458,0.0462,0.0483,0.0482,0.0478,0.0469,0.0473,0.0455,0.0445,0.0437,0.0406,0.0383,0.0349,0.0326,0.031,0.0321,0.028,0.031,0.0348,0.0311,0.0313,0.0314,0.0277,0.0275,0.0313,0.0313,0.0313,0,0.0462,0.0493,0.0484,0.0502,0.0509,0.0484,0.0505,0.049,0.0469,0.0466,0.0446,0.0397,0.0364,0.0351,0.0353,0.0332,0.0303,0.0335,0.0318,0.0318,0.0318,0.028,0.0277,0.0316,0.0316,0.0315,0.0315,0,0.0499,0.0523,0.0533,0.0556,0.0559,0.0572,0.056,0.0556,0.0541,0.0527,0.0507,0.0457,0.0432,0.0412,0.0386,0.0373,0.035,0.0328,0.031,0.0325,0.0283,0.0278,0.032,0.0319,0.0318,0.0317,0,0,0.0513,0.0555,0.0559,0.0585,0.0593,0.0602,0.0611,0.0616,0.0632,0.059,0.0598,0.0545,0.0517,0.0496,0.0454,0.0418,0.0389,0.038,0.0376,0.0352,0.0307,0.029,0.0283,0.0364,0.0363,0.0363,0.0277,0,0.0546,0.0605,0.0612,0.0661,0.0691,0.0677,0.0694,0.0691,0.068,0.0679,0.0617,0.0609,0.0549,0.0541,0.0495,0.0421,0.0379,0.0414,0.0289,0.0285,0.0276,0.0278,0.0294,0.0219,0.0272,0.0271,0.027,0,0.0583,0.0623,0.0683,0.0732,0.0743,0.0767,0.0798,0.0809,0.0796,0.0786,0.0756,0.0709,0.0656,0.0601,0.0476,0.0502,0.0413,0.0344,0.0339,0.0301,0.026,0.0211,0.0207,0.0261,0.0262,0.0263,0.0263,0,0.0613,0.0672,0.0729,0.0744,0.0791,0.0814,0.0838,0.0846,0.0875,0.086,0.0872,0.0792,0.0764,0.0641,0.0497,0.0487,0.0354,0.0321,0.0218,0.0215,0.0193,0.019,0.0228,0.0228,0.0228,0.0229,0.0229,0,0.0655,0.0698,0.0752,0.0785,0.0855,0.0866,0.0937,0.0942,0.0971,0.1016,0.0936,0.0947,0.0773,0.0674,0.0527,0.0363,0.0373,0.0228,0.0194,0.0215,0.0215,0.0224,0.0225,0.0225,0.0226,0.0227,0.0227,0,0.0683,0.0715,0.0787,0.0852,0.0875,0.0928,0.1014,0.1068,0.1078,0.1132,0.1131,0.1066,0.0942,0.0753,0.0559,0.0417,0.0253,0.0188,0.0225,0.0198,0.0127,0.0132,0.0065,0.0064,0.0063,0.0062,0.0061,0,0.0705,0.0746,0.0838,0.089,0.0927,0.1009,0.1073,0.1119,0.1188,0.1209,0.1245,0.1146,0.1098,0.0806,0.0543,0.0282,0.0247,0.0117,0.0099,0.0138,0.0112,0.0118,0.0124,0.0088,0.0087,0.0087,0.0087,0,0.0749,0.0781,0.0843,0.0953,0.1034,0.1129,0.1227,0.1296,0.1349,0.1395,0.1436,0.1396,0.1127,0.0878,0.0519,0.0337,0.016,0.0102,0.013,0.0134,0.0154,0.013,0.0136,0.0083,0.0083,0.0084,0.0084,0.0084,0.0781,0.0831,0.0915,0.1018,0.1115,0.1235,0.1324,0.1432,0.1541,0.1614,0.1578,0.1524,0.1232,0.0786,0.0473,0.0138,0.0155,0.0028,0.0031,0.0034,0.006,0.0077,-0.0004,-0.0004,-0.0004,-0.0004,-0.0004,0,0.082,0.0879,0.0975,0.1098,0.1207,0.1258,0.1416,0.1508,0.1642,0.1707,0.1741,0.1453,0.1171,0.0827,0.0339,0.0052,0.0028,-0.005,-0.0014,-0.0009,-0.0004,0.0021,-0.0054,-0.0055,-0.0056,-0.0057,0,0,0.0841,0.0928,0.0974,0.1144,0.1239,0.1389,0.1484,0.1617,0.1706,0.1775,0.175,0.1697,0.1275,0.0916,0.0518,0.0235,0.0179,0.0172,0.0242,0.0337,0.0345,0.0067,0.0115,0,0,0,0,0]}],[{"header":{"parameterUnit":"m.s-1","parameterCategory":2,"la1":30.2991,"la2":30.254,"lo1":-89.0895,"lo2":-89.0444,"dy":0.0017,"dx":0.0017,"nx":28,"ny":28,"refTime":"2025-04-27T09:00:00:Z","depth":"4","parameterNumber":2,"parameterNumberName":"U-component_of_CURRENTS"},"data":[0,0,0,0,0,0,0,0,0,0,0,0,0,0,0,0,0,0,0,0,0,0,0,0,0,0,0,0,0,0,0,0,0,0,0,0,0,0,0,0,0,0,0,0,0,0,0,0,0,0,0,0,0,0,0,0,0,0,0.1897,0.1897,0,0.1963,0.1964,0.1964,0.2023,0.2024,0.2025,0.2026,0.2104,0.2105,0.2106,0,0,0,0,0,0,0,0,0,0,0,0,0,0.1817,0.1818,0.1896,0.1898,0.1899,0.1963,0.1964,0.1964,0.2023,0.2024,0.2025,0.2026,0.2103,0.2105,0.2106,0,0,0,0,0,0,0,0,0,0,0,0,0,0.1862,0.1818,0.1896,0.1937,0.1941,0.1963,0.1964,0.1965,0.2023,0.2024,0.2025,0.2027,0.2103,0.2104,0.2106,0.2092,0,0,0.2112,0.2113,0,0,0,0,0,0,0,0,0.186,0.1865,0.193,0.1934,0.1939,0.1988,0.1965,0.2009,0.2022,0.199,0.2026,0.2027,0.2066,0.2071,0.2078,0.2096,0.2099,0.2112,0.2113,0.2114,0.2115,0,0,0,0,0,0,0,0.1857,0.1862,0.1921,0.1931,0.1937,0.1951,0.1959,0.1973,0.2018,0.1993,0.1998,0.2008,0.2069,0.2076,0.208,0.21,0.2112,0.2114,0.2115,0.2116,0.2227,0.2228,0,0,0,0,0,0,0.1851,0.1859,0.1919,0.1923,0.1904,0.1952,0.196,0.1969,0.2018,0.2028,0.2007,0.201,0.2072,0.2078,0.2083,0.2175,0.2114,0.2116,0.2117,0.2225,0.2227,0.2229,0,0,0,0,0,0,0.1849,0.1856,0.1916,0.1894,0.1904,0.1952,0.1962,0.197,0.2018,0.2029,0.2039,0.2051,0.2073,0.208,0.2134,0.2174,0.2117,0.2119,0.2223,0.2225,0.2228,0.229,0,0,0,0,0,0,0.1846,0.1854,0.1878,0.1894,0.1905,0.1955,0.1961,0.197,0.2021,0.2028,0.207,0.2076,0.2075,0.2132,0.2136,0.2176,0.212,0.222,0.2224,0.2227,0.2285,0.2294,0.2302,0,0,0,0,0,0.1843,0.1862,0.1879,0.1887,0.1929,0.1956,0.1963,0.2,0.2022,0.2048,0.2082,0.2077,0.2156,0.2135,0.214,0.218,0.2219,0.2223,0.2227,0.2282,0.2292,0.2301,0,0,0,0,0,0,0.184,0.187,0.1889,0.1918,0.1949,0.1967,0.2,0.2022,0.2067,0.2089,0.2097,0.2105,0.217,0.2166,0.2141,0.2223,0.2188,0.2193,0.2228,0.2238,0.2246,0.2249,0.2122,0,0,0,0,0,0.1849,0.1876,0.1902,0.1931,0.195,0.1983,0.2007,0.2033,0.2066,0.209,0.2119,0.2152,0.2182,0.2204,0.2228,0.2268,0.2267,0.2299,0.2308,0.2314,0.2321,0.2354,0.2365,0.2242,0.2242,0.2242,0,0,0.1857,0.1878,0.1895,0.1934,0.1964,0.1996,0.2002,0.2051,0.2087,0.2089,0.2161,0.2186,0.2201,0.2252,0.228,0.2259,0.235,0.232,0.2325,0.2329,0.2359,0.2371,0.2382,0.2245,0.2244,0.2244,0,0,0.1871,0.1907,0.1931,0.1961,0.2013,0.2033,0.2056,0.21,0.2136,0.2194,0.2211,0.2261,0.2305,0.2325,0.2337,0.2403,0.2395,0.2419,0.246,0.2492,0.2502,0.2511,0.2526,0.2536,0.2419,0.2419,0.2419,0,0.1887,0.1914,0.1944,0.1976,0.2007,0.2054,0.2088,0.2126,0.2187,0.2217,0.223,0.2319,0.2336,0.2392,0.2421,0.2422,0.2435,0.242,0.2502,0.2511,0.2519,0.2532,0.2542,0.2423,0.2422,0.2422,0.2422,0,0.1905,0.1947,0.1967,0.2022,0.2058,0.21,0.2149,0.2202,0.2252,0.2285,0.2369,0.2399,0.2448,0.2467,0.2467,0.2538,0.2527,0.2511,0.2474,0.2535,0.2545,0.2555,0.2428,0.2426,0.2425,0.2424,0,0,0.189,0.1965,0.1979,0.2014,0.2089,0.2118,0.2187,0.225,0.231,0.2373,0.2441,0.2502,0.2531,0.2547,0.2563,0.2595,0.2664,0.2586,0.2586,0.2596,0.2734,0.2557,0.255,0.2668,0.267,0.2672,0.2718,0,0.1903,0.1958,0.1998,0.2069,0.2101,0.2167,0.2226,0.2296,0.2363,0.2443,0.2489,0.2566,0.2557,0.2603,0.2633,0.2666,0.2692,0.2653,0.2678,0.2679,0.251,0.2555,0.2678,0.2725,0.2727,0.2729,0.273,0,0.1903,0.1942,0.2003,0.2092,0.2116,0.2173,0.2279,0.2343,0.2452,0.2508,0.2585,0.2629,0.2704,0.2686,0.2758,0.2738,0.2744,0.2755,0.2757,0.2574,0.2518,0.2652,0.2746,0.2745,0.2743,0.2742,0.2741,0,0.1858,0.1948,0.1997,0.2028,0.2133,0.2187,0.2258,0.2368,0.243,0.2568,0.2623,0.2711,0.2769,0.2801,0.2821,0.2808,0.2883,0.2858,0.2699,0.2686,0.2805,0.2795,0.2899,0.2899,0.2899,0.2899,0.2899,0,0.1832,0.1882,0.199,0.2018,0.2095,0.2182,0.2281,0.2367,0.2489,0.2557,0.2662,0.2712,0.2805,0.2848,0.2853,0.2796,0.2905,0.271,0.2687,0.283,0.2822,0.2811,0.28,0.29,0.29,0.29,0.2899,0,0.177,0.184,0.1909,0.203,0.2074,0.2137,0.2281,0.2344,0.2479,0.2571,0.2618,0.2739,0.2793,0.2847,0.2906,0.2813,0.2798,0.2749,0.2904,0.2889,0.2573,0.2566,0.2571,0.2565,0.2561,0.2556,0.2553,0,0.1735,0.1765,0.1903,0.1944,0.2008,0.2112,0.2174,0.2324,0.2384,0.2553,0.2575,0.2685,0.274,0.2672,0.2753,0.2742,0.2706,0.2673,0.2611,0.2563,0.2541,0.2541,0.254,0.2545,0.2544,0.2542,0.2541,0,0.1671,0.1742,0.1797,0.1879,0.1955,0.2022,0.2125,0.2146,0.2306,0.2446,0.2465,0.2481,0.253,0.2557,0.2565,0.2555,0.2682,0.262,0.2629,0.2572,0.2531,0.2514,0.2519,0.2524,0.2526,0.2528,0.2529,0,0.1633,0.1652,0.1734,0.1791,0.1877,0.1895,0.1964,0.2017,0.2086,0.2264,0.2268,0.238,0.2506,0.246,0.2473,0.2445,0.2402,0.2308,0.2333,0.2353,0.2258,0.2173,0.2037,0,0,0,0,0,0.1579,0.1583,0.1633,0.1674,0.1752,0.18,0.1911,0.198,0.2123,0.2079,0.2165,0.2199,0.2204,0.227,0.2196,0.2378,0.2416,0.228,0.2323,0.2428,0.2448,0.2354,0,0,0,0,0,0,0.1538,0.1586,0.1591,0.1564,0.1572,0.1633,0.1697,0.1795,0.1778,0.1932,0.195,0.2065,0.2112,0.2225,0.2156,0.2173,0.2152,0.2361,0.2355,0.2417,0.2435,0.2451,0.2362,0,0,0,0,0]},{"header":{"parameterUnit":"m.s-1","parameterCategory":2,"la1":30.2991,"la2":30.254,"lo1":-89.0895,"lo2":-89.0444,"dy":0.0017,"dx":0.0017,"nx":28,"ny":28,"refTime":"2025-04-27T09:00:00:Z","depth":"4","parameterNumber":3,"parameterNumberName":"V-component_of_CURRENTS"},"data":[0,0,0,0,0,0,0,0,0,0,0,0,0,0,0,0,0,0,0,0,0,0,0,0,0,0,0,0,0,0,0,0,0,0,0,0,0,0,0,0,0,0,0,0,0,0,0,0,0,0,0,0,0,0,0,0,0,0,0.0313,0.0313,0,0.0288,0.0288,0.0287,0.0276,0.0276,0.0277,0.0277,0.0239,0.0238,0.0237,0,0,0,0,0,0,0,0,0,0,0,0,0,0.0297,0.0298,0.0313,0.0313,0.0312,0.0288,0.0288,0.0287,0.0276,0.0276,0.0277,0.0277,0.024,0.0238,0.0237,0,0,0,0,0,0,0,0,0,0,0,0,0,0.0291,0.0298,0.0313,0.0305,0.0304,0.0288,0.0288,0.0287,0.0276,0.0276,0.0277,0.0277,0.024,0.0238,0.0237,0.0222,0,0,0.0232,0.0231,0,0,0,0,0,0,0,0,0.0291,0.0291,0.0306,0.0305,0.0304,0.0287,0.0269,0.0265,0.0276,0.0285,0.0277,0.0277,0.0255,0.0252,0.0245,0.022,0.0219,0.0231,0.023,0.023,0.0229,0,0,0,0,0,0,0,0.0292,0.0292,0.0302,0.0306,0.0305,0.0284,0.0284,0.0268,0.0268,0.0285,0.0284,0.0283,0.0254,0.0247,0.0244,0.0218,0.0232,0.023,0.0229,0.0228,0.0189,0.0189,0,0,0,0,0,0,0.03,0.0293,0.0303,0.0301,0.0299,0.0285,0.0284,0.0291,0.0268,0.0266,0.0283,0.0283,0.0249,0.0246,0.0243,0.0246,0.023,0.0228,0.0227,0.0189,0.0189,0.0189,0,0,0,0,0,0,0.03,0.0301,0.0304,0.0297,0.0296,0.0285,0.0293,0.0291,0.0291,0.0268,0.0264,0.0287,0.0249,0.0245,0.0236,0.0243,0.0227,0.0226,0.0189,0.0189,0.0189,0.0238,0,0,0,0,0,0,0.0299,0.0301,0.031,0.0298,0.0296,0.0303,0.0293,0.029,0.029,0.029,0.027,0.0266,0.0249,0.0239,0.0235,0.0241,0.0225,0.0189,0.0189,0.0189,0.0236,0.0239,0.0242,0,0,0,0,0,0.0299,0.0311,0.0311,0.0312,0.0309,0.0303,0.0301,0.0292,0.0291,0.0293,0.028,0.0267,0.0235,0.0238,0.0233,0.0238,0.0189,0.0189,0.0189,0.0235,0.0239,0.0242,0,0,0,0,0,0,0.0304,0.0311,0.0311,0.0323,0.0318,0.0302,0.0304,0.0298,0.0289,0.0292,0.0269,0.0264,0.0258,0.0239,0.0243,0.0225,0.0209,0.0208,0.0245,0.0249,0.0252,0.0267,0.0223,0,0,0,0,0,0.0311,0.0325,0.0321,0.033,0.0331,0.0319,0.0316,0.0312,0.0302,0.0299,0.0285,0.0267,0.0251,0.0245,0.0227,0.022,0.0195,0.0218,0.0221,0.0224,0.0231,0.0198,0.0199,0.0189,0.0189,0.0189,0,0,0.0314,0.032,0.0327,0.0332,0.0328,0.0336,0.0318,0.032,0.0326,0.0295,0.03,0.0278,0.0251,0.0243,0.0238,0.0231,0.0212,0.0224,0.0226,0.0233,0.0198,0.0199,0.02,0.0189,0.0189,0.0189,0,0,0.0327,0.0335,0.0351,0.0353,0.0355,0.035,0.0355,0.0346,0.0343,0.0341,0.032,0.0306,0.0283,0.0265,0.0253,0.026,0.0229,0.0252,0.0281,0.0249,0.025,0.025,0.0217,0.0215,0.0254,0.0254,0.0255,0,0.033,0.0355,0.0352,0.0367,0.0375,0.0361,0.0379,0.0371,0.0361,0.0362,0.035,0.0317,0.0294,0.0282,0.0285,0.0268,0.0244,0.0273,0.0254,0.0254,0.0253,0.022,0.0216,0.0257,0.0257,0.0256,0.0256,0,0.0354,0.0376,0.0384,0.0405,0.0411,0.0423,0.0419,0.0421,0.0416,0.0408,0.0397,0.0361,0.0344,0.0328,0.031,0.0297,0.0279,0.0262,0.0249,0.0258,0.0221,0.0216,0.026,0.0259,0.0259,0.0258,0,0,0.0358,0.0396,0.0401,0.0424,0.0437,0.0446,0.0458,0.0466,0.0482,0.0455,0.0464,0.0425,0.0407,0.0391,0.036,0.0329,0.0302,0.0301,0.0298,0.0275,0.0229,0.021,0.0203,0.0282,0.0282,0.0281,0.0204,0,0.0381,0.0425,0.0437,0.0478,0.0502,0.0502,0.0518,0.0521,0.0519,0.0523,0.0477,0.0474,0.043,0.0427,0.0388,0.0328,0.0292,0.0324,0.0218,0.0215,0.0203,0.0198,0.028,0.0201,0.0199,0.0199,0.0198,0,0.0403,0.0435,0.0484,0.0531,0.0541,0.0565,0.0599,0.0612,0.0608,0.0605,0.0585,0.0551,0.0508,0.0469,0.0364,0.0388,0.0316,0.026,0.0255,0.0219,0.0187,0.0188,0.0189,0.019,0.019,0.0191,0.0191,0,0.0417,0.0468,0.0515,0.053,0.0575,0.0601,0.0627,0.0642,0.0669,0.0664,0.0676,0.0613,0.0591,0.0491,0.0375,0.0371,0.0253,0.0231,0.0142,0.0139,0.0159,0.0159,0.0153,0.0153,0.0153,0.0153,0.0154,0,0.0439,0.0477,0.0531,0.0558,0.062,0.0638,0.0704,0.0714,0.0744,0.078,0.0726,0.0728,0.0597,0.0512,0.0395,0.0256,0.0264,0.0147,0.0119,0.018,0.0183,0.0155,0.0156,0.015,0.0151,0.0152,0.0152,0,0.045,0.0482,0.0543,0.0606,0.0632,0.0679,0.0766,0.0811,0.0829,0.0872,0.0874,0.0817,0.0708,0.0562,0.04,0.0291,0.0154,0.01,0.018,0.0157,0.0056,0.006,-0.0005,-0.0007,-0.0008,-0.0009,-0.0009,0,0.0459,0.0492,0.058,0.0628,0.0666,0.0744,0.0801,0.085,0.0903,0.0923,0.0943,0.086,0.0797,0.0559,0.04,0.0169,0.0131,0.0052,0.0047,0.0061,0.004,0.0046,0.0052,-0.0011,-0.0011,-0.0012,-0.0012,0,0.0479,0.0514,0.0567,0.0666,0.0741,0.0825,0.0911,0.0952,0.1002,0.1016,0.0997,0.0876,0.0751,0.0564,0.0385,0.0218,0.0099,0.004,0.0041,0.0035,0.0053,0.0034,0.0042,-0.0016,-0.0015,-0.0015,-0.0015,0,0.0496,0.0535,0.0611,0.0698,0.0793,0.088,0.0925,0.0985,0.1031,0.1047,0.1038,0.0902,0.0832,0.0589,0.0426,0.0258,0.0208,0.014,0.0135,0.0137,0.0195,0.0239,0.0205,0,0,0,0,0,0.051,0.0556,0.0637,0.0733,0.083,0.0889,0.0987,0.1025,0.1067,0.1058,0.1052,0.0934,0.0696,0.0606,0.0435,0.0389,0.017,0.018,0.0086,-0.0037,-0.0033,0.0009,0,0,0,0,0,0,0.0518,0.0592,0.0631,0.0749,0.0819,0.0928,0.0992,0.1023,0.1025,0.1037,0.0924,0.0871,0.0651,0.0791,0.0425,0.0377,0.0288,0.0078,0.0073,-0.004,-0.0036,-0.0032,0.0012,0,0,0,0,0]}]]